• In Netherlands
  • List of Countries
  • For 7 days
  • Water Temperature
  • Satellite Maps
  • Weather Map
  • Weather Widgets
  • user-avatar
    Login

    Hourly Weather Blagoevgrad

    Today, 28 March, Tuesday

    Time Temperature Precipitation Wind Pressure Humidity
    00:00 +4°C° 0 mm 1 mps 725 mmHg 77%
    01:00 +4°C° 0 mm 1 mps 725 mmHg 76%
    02:00 +4°C° 0 mm 1 mps 725 mmHg 76%
    03:00 +4°C° 0 mm 1 mps 725 mmHg 76%
    04:00 +3°C° 0 mm 1 mps 725 mmHg 76%
    05:00 +3°C° 0 mm 1 mps 725 mmHg 75%
    06:00 +5°C° 0 mm 1 mps 725 mmHg 67%
    07:00 +7°C° 0 mm 1 mps 725 mmHg 60%
    08:00 +8°C° 0 mm 1 mps 726 mmHg 52%
    09:00 +10°C° 0 mm 1 mps 725 mmHg 46%
    10:00 +12°C° 0 mm 1 mps 725 mmHg 39%
    11:00 +15°C° 0 mm 1 mps 725 mmHg 33%
    12:00 +15°C° 0 mm 1 mps 725 mmHg 33%
    13:00 +16°C° 0 mm 1 mps 725 mmHg 32%
    14:00 +18°C° 0 mm 1 mps 724 mmHg 32%
    15:00 +18°C° 0 mm 1 mps 724 mmHg 34%
    16:00 +16°C° 0 mm 1 mps 724 mmHg 36%
    17:00 +16°C° 0 mm 1 mps 723 mmHg 38%
    18:00 +13°C° 0 mm 1 mps 723 mmHg 47%
    19:00 +11°C° 0 mm 1 mps 723 mmHg 56%
    20:00 +8°C° 0 mm 1 mps 723 mmHg 64%
    21:00 +8°C° 0 mm 1 mps 723 mmHg 65%
    22:00 +7°C° 0 mm 1 mps 724 mmHg 67%
    23:00 +7°C° 0 mm 1 mps 724 mmHg 68%

    Tomorrow, 29 March, Wednesday

    Time Temperature Precipitation Wind Pressure Humidity
    00:00 +6°C° 0 mm 1 mps 724 mmHg 68%
    01:00 +6°C° 0 mm 1 mps 724 mmHg 68%
    02:00 +6°C° 0 mm 1 mps 724 mmHg 69%
    03:00 +6°C° 0 mm 1 mps 724 mmHg 70%
    04:00 +5°C° 0 mm 1 mps 724 mmHg 71%
    05:00 +5°C° 0 mm 1 mps 724 mmHg 72%
    06:00 +7°C° 0 mm 1 mps 725 mmHg 66%
    07:00 +9°C° 0 mm 1 mps 725 mmHg 60%
    08:00 +10°C° 0 mm 1 mps 726 mmHg 54%
    09:00 +13°C° 0 mm 1 mps 726 mmHg 47%
    10:00 +15°C° 0 mm 1 mps 726 mmHg 40%
    11:00 +17°C° 0 mm 2 mps 726 mmHg 33%
    12:00 +18°C° 0 mm 2 mps 725 mmHg 33%
    13:00 +19°C° 0 mm 2 mps 725 mmHg 32%
    14:00 +20°C° 0 mm 2 mps 725 mmHg 31%
    15:00 +19°C° 0 mm 2 mps 724 mmHg 34%
    16:00 +19°C° 0 mm 2 mps 724 mmHg 36%
    17:00 +18°C° 0 mm 2 mps 723 mmHg 39%
    18:00 +16°C° 0 mm 2 mps 723 mmHg 48%
    19:00 +13°C° 0 mm 1 mps 723 mmHg 56%
    20:00 +10°C° 0 mm 1 mps 723 mmHg 65%
    21:00 +10°C° 0 mm 1 mps 723 mmHg 67%
    22:00 +9°C° 0 mm 1 mps 724 mmHg 69%
    23:00 +8°C° 0 mm 1 mps 724 mmHg 72%

    Day after tomorrow, 30 March, Thursday

    Time Temperature Precipitation Wind Pressure Humidity
    00:00 +8°C° 0 mm 1 mps 724 mmHg 73%
    01:00 +8°C° 0 mm 1 mps 724 mmHg 73%
    02:00 +8°C° 0 mm 1 mps 724 mmHg 74%
    03:00 +7°C° 0 mm 1 mps 724 mmHg 75%
    04:00 +7°C° 0 mm 1 mps 723 mmHg 76%
    05:00 +7°C° 0 mm 1 mps 723 mmHg 77%
    06:00 +9°C° 0 mm 1 mps 724 mmHg 73%
    07:00 +10°C° 0 mm 1 mps 724 mmHg 68%
    08:00 +12°C° 0 mm 1 mps 724 mmHg 64%
    09:00 +14°C° 0 mm 2 mps 724 mmHg 58%
    10:00 +16°C° 0 mm 2 mps 724 mmHg 51%
    11:00 +18°C° 0 mm 2 mps 724 mmHg 44%
    12:00 +18°C° 0 mm 3 mps 724 mmHg 43%
    13:00 +19°C° 0 mm 3 mps 724 mmHg 42%
    14:00 +20°C° 0 mm 3 mps 724 mmHg 40%
    15:00 +19°C° 0 mm 3 mps 724 mmHg 43%
    16:00 +19°C° 0 mm 3 mps 723 mmHg 46%
    17:00 +18°C° 0 mm 3 mps 723 mmHg 49%
    18:00 +16°C° 0 mm 3 mps 723 mmHg 58%
    19:00 +14°C° 0 mm 2 mps 724 mmHg 68%
    20:00 +12°C° 0 mm 2 mps 724 mmHg 77%
    21:00 +10°C° 0 mm 2 mps 724 mmHg 80%
    22:00 +10°C° 0 mm 2 mps 725 mmHg 83%
    23:00 +10°C° 0 mm 1 mps 725 mmHg 86%

    31 March, Friday

    Time Temperature Precipitation Wind Pressure Humidity
    00:00 +10°C° 0 mm 1 mps 725 mmHg 87%
    01:00 +10°C° 0 mm 1 mps 726 mmHg 89%
    02:00 +9°C° 0 mm 1 mps 726 mmHg 91%
    03:00 +9°C° 0 mm 1 mps 726 mmHg 91%
    04:00 +9°C° 0 mm 1 mps 726 mmHg 92%
    05:00 +8°C° 0 mm 1 mps 726 mmHg 92%
    06:00 +10°C° 0 mm 1 mps 727 mmHg 87%
    07:00 +11°C° 0 mm 1 mps 727 mmHg 81%
    08:00 +12°C° 0 mm 1 mps 727 mmHg 76%
    09:00 +14°C° 0 mm 1 mps 728 mmHg 68%
    10:00 +16°C° 0 mm 1 mps 728 mmHg 60%
    11:00 +17°C° 0 mm 2 mps 728 mmHg 52%
    12:00 +18°C° 0 mm 2 mps 727 mmHg 49%
    13:00 +18°C° 0 mm 2 mps 727 mmHg 47%
    14:00 +19°C° 0 mm 2 mps 727 mmHg 44%
    15:00 +18°C° 0 mm 2 mps 726 mmHg 46%
    16:00 +18°C° 0 mm 2 mps 726 mmHg 47%
    17:00 +17°C° 0 mm 2 mps 725 mmHg 49%
    18:00 +15°C° 0 mm 2 mps 725 mmHg 58%
    19:00 +13°C° 0 mm 2 mps 725 mmHg 67%
    20:00 +11°C° 0 mm 1 mps 725 mmHg 76%
    21:00 +10°C° 0 mm 1 mps 725 mmHg 79%
    22:00 +9°C° 0 mm 1 mps 725 mmHg 82%
    23:00 +8°C° 0 mm 1 mps 725 mmHg 85%

    1 April, Saturday

    Time Temperature Precipitation Wind Pressure Humidity
    00:00 +8°C° 0 mm 1 mps 725 mmHg 87%
    01:00 +8°C° 0 mm 1 mps 725 mmHg 89%
    02:00 +7°C° 0 mm 1 mps 725 mmHg 90%
    03:00 +7°C° 0 mm 1 mps 725 mmHg 91%
    04:00 +5°C° 0 mm 0 mps 724 mmHg 91%
    05:00 +5°C° 0 mm 0 mps 724 mmHg 91%
    06:00 +7°C° 0 mm 0 mps 724 mmHg 83%
    07:00 +9°C° 0 mm 0 mps 725 mmHg 74%
    08:00 +10°C° 0 mm 0 mps 725 mmHg 66%
    09:00 +13°C° 0 mm 0 mps 725 mmHg 56%
    10:00 +15°C° 0 mm 0 mps 725 mmHg 46%
    11:00 +20°C° 0 mm 1 mps 725 mmHg 36%
    12:00 +20°C° 0 mm 1 mps 724 mmHg 33%
    13:00 +21°C° 0 mm 1 mps 724 mmHg 30%
    14:00 +22°C° 0 mm 1 mps 723 mmHg 27%
    15:00 +21°C° 0 mm 1 mps 723 mmHg 29%
    16:00 +21°C° 0 mm 1 mps 723 mmHg 31%
    17:00 +20°C° 0 mm 1 mps 722 mmHg 32%
    18:00 +16°C° 0 mm 1 mps 722 mmHg 42%
    19:00 +14°C° 0 mm 1 mps 722 mmHg 51%
    20:00 +11°C° 0 mm 1 mps 722 mmHg 60%
    21:00 +10°C° 0 mm 1 mps 723 mmHg 64%
    22:00 +10°C° 0 mm 1 mps 723 mmHg 69%
    23:00 +9°C° 0 mm 1 mps 723 mmHg 73%

    2 April, Sunday

    Time Temperature Precipitation Wind Pressure Humidity
    00:00 +8°C° 0 mm 1 mps 723 mmHg 77%
    01:00 +8°C° 0 mm 1 mps 723 mmHg 80%
    02:00 +7°C° 0 mm 1 mps 723 mmHg 84%
    03:00 +6°C° 0 mm 0 mps 722 mmHg 85%
    04:00 +6°C° 0 mm 0 mps 722 mmHg 86%
    05:00 +5°C° 0 mm 0 mps 722 mmHg 87%
    06:00 +7°C° 0 mm 0 mps 723 mmHg 76%
    07:00 +10°C° 0 mm 0 mps 723 mmHg 66%
    08:00 +12°C° 0 mm 0 mps 724 mmHg 55%
    09:00 +14°C° 0 mm 0 mps 724 mmHg 46%
    10:00 +19°C° 0 mm 1 mps 724 mmHg 37%
    11:00 +21°C° 0 mm 1 mps 725 mmHg 28%
    12:00 +21°C° 0 mm 1 mps 724 mmHg 26%
    13:00 +22°C° 0 mm 1 mps 724 mmHg 24%
    14:00 +23°C° 0 mm 1 mps 724 mmHg 22%
    15:00 +22°C° 0 mm 1 mps 724 mmHg 24%
    16:00 +21°C° 0 mm 1 mps 723 mmHg 26%
    17:00 +21°C° 0 mm 1 mps 723 mmHg 28%
    18:00 +18°C° 0 mm 1 mps 723 mmHg 35%
    19:00 +14°C° 0 mm 1 mps 723 mmHg 43%
    20:00 +11°C° 0 mm 1 mps 723 mmHg 51%
    21:00 +11°C° 0 mm 1 mps 723 mmHg 53%
    22:00 +10°C° 0 mm 1 mps 723 mmHg 55%
    23:00 +9°C° 0 mm 1 mps 723 mmHg 57%
    Show more